Temp
-4 -5 -5 -5 -5 -5 -5 -5 -5 -5 -4 -4 -4 -4 -4 -4 -4 -5 -5 -6 -6 -6 -6 -6 -7 -6 -6 -6 -7 -7 -7 -7 -7 -7 -8 -8 -8 -8 -8 -8 -8 -7 -8 -8 -8 -8 -7 -7 -8
-4 -3 -4 -5 -5 -5 -5 -5 -5 -4 -4 -4 -4 -4 -4 -4 -4 -5 -5 -6 -6 -6 -6 -6 -7 -6 -6 -7 -7 -7 -7 -7 -7 -7 -8 -8 -8 -8 -8 -8 -8 -8 -8 -8 -8 -8 -7 -7 -8
-5 -5 -5 -5 -5 -5 -5 -5 -5 -4 -4 -4 -4 -4 -4 -4 -5 -5 -5 -6 -6 -6 -6 -6 -6 -6 -6 -7 -7 -7 -7 -7 -7 -8 -8 -8 -8 -8 -8 -8 -8 -8 -8 -8 -8 -8 -8 -8 -8
-6 -6 -6 -6 -5 -5 -5 -5 -5 -5 -5 -5 -5 -5 -4 -5 -4 -5 -6 -6 -6 -6 -6 -6 -6 -6 -7 -7 -7 -7 -7 -7 -7 -8 -8 -8 -8 -8 -8 -8 -8 -8 -8 -8 -8 -8 -8 -8 -8
-6 -6 -6 -6 -6 -6 -5 -5 -5 -5 -5 -5 -5 -5 -5 -5 -5 -5 -5 -6 -6 -6 -6 -6 -6 -6 -7 -7 -7 -7 -7 -7 -8 -8 -8 -8 -8 -8 -8 -8 -8 -8 -8 -8 -8 -8 -8 -8 -8
-7 -6 -6 -6 -6 -6 -6 -5 -5 -5 -5 -6 -6 -6 -6 -6 -6 -5 -5 -6 -6 -6 -6 -6 -6 -7 -7 -7 -7 -7 -7 -7 -8 -8 -8 -8 -8 -8 -8 -8 -8 -8 -8 -8 -8 -8 -8 -8 -7
-7 -6 -6 -7 -6 -6 -5 -5 -6 -6 -6 -6 -6 -6 -6 -6 -6 -6 -6 -6 -6 -7 -6 -6 -6 -7 -7 -7 -7 -7 -7 -7 -7 -7 -8 -7 -7 -8 -7 -7 -7 -7 -8 -7 -8 -7 -7 -7 -7
-7 -7 -7 -7 -6 -5 -5 -6 -6 -6 -6 -6 -6 -6 -6 -6 -7 -7 -6 -6 -6 -6 -6 -6 -6 -7 -7 -7 -7 -7 -7 -7 -7 -7 -7 -7 -7 -7 -7 -7 -7 -7 -7 -7 -7 -7 -7 -7 -7
-7 -7 -7 -6 -5 -5 -5 -5 -6 -6 -6 -6 -6 -7 -7 -6 -7 -7 -7 -6 -6 -6 -6 -6 -6 -6 -7 -7 -7 -7 -7 -7 -7 -7 -7 -7 -7 -7 -7 -7 -7 -7 -7 -7 -7 -7 -7 -8 -8
-6 -7 -7 -6 -6 -6 -5 -5 -6 -6 -6 -6 -7 -7 -7 -7 -6 -7 -7 -6 -6 -6 -6 -6 -6 -7 -7 -7 -7 -7 -7 -7 -7 -7 -7 -7 -7 -7 -7 -7 -7 -7 -7 -7 -7 -7 -7 -8 -8
-7 -7 -6 -6 -6 -5 -5 -5 -5 -6 -6 -7 -6 -7 -7 -7 -7 -7 -7 -7 -6 -6 -6 -6 -7 -7 -6 -7 -7 -6 -7 -7 -7 -7 -7 -7 -7 -7 -7 -7 -7 -7 -7 -7 -7 -8 -8 -8 -8
-7 -7 -7 -6 -6 -5 -5 -5 -5 -6 -7 -7 -7 -7 -7 -7 -7 -7 -7 -7 -6 -6 -6 -6 -6 -7 -6 -6 -6 -6 -7 -7 -7 -7 -7 -7 -7 -7 -7 -7 -7 -7 -7 -7 -7 -7 -7 -8 -8
-7 -7 -7 -6 -6 -6 -6 -6 -6 -6 -7 -7 -7 -7 -7 -7 -7 -7 -7 -7 -6 -6 -6 -6 -6 -6 -6 -6 -6 -6 -7 -7 -7 -7 -7 -7 -7 -7 -7 -7 -7 -7 -7 -7 -7 -7 -7 -7 -7
-7 -6 -6 -6 -7 -6 -7 -6 -6 -6 -6 -7 -7 -7 -7 -7 -8 -7 -8 -7 -7 -6 -6 -6 -6 -6 -6 -6 -6 -6 -6 -6 -6 -7 -7 -7 -7 -7 -7 -7 -7 -7 -7 -7 -7 -7 -7 -7 -7
-7 -6 -5 -6 -7 -7 -7 -7 -7 -7 -6 -7 -8 -8 -8 -7 -7 -8 -7 -7 -7 -6 -6 -6 -6 -6 -6 -6 -6 -6 -6 -6 -6 -6 -7 -7 -7 -7 -7 -7 -7 -7 -7 -7 -7 -7 -7 -7 -7
-6 -6 -5 -6 -6 -7 -7 -7 -8 -8 -8 -8 -8 -8 -7 -7 -7 -6 -7 -6 -6 -6 -6 -6 -6 -6 -6 -6 -6 -6 -6 -6 -6 -7 -7 -7 -7 -7 -7 -7 -7 -7 -7 -7 -7 -7 -7 -7 -7
-5 -5 -6 -6 -7 -6 -7 -8 -8 -8 -8 -8 -8 -8 -7 -7 -6 -6 -6 -6 -6 -6 -6 -6 -6 -6 -6 -6 -6 -6 -6 -6 -6 -6 -7 -7 -7 -7 -7 -7 -7 -7 -7 -7 -7 -7 -7 -7 -7
-4 -5 -6 -7 -7 -6 -7 -7 -8 -8 -8 -8 -8 -8 -7 -7 -6 -5 -5 -5 -6 -6 -6 -6 -5 -6 -6 -6 -6 -6 -6 -6 -6 -6 -6 -7 -7 -7 -7 -7 -7 -7 -7 -6 -7 -7 -7 -7 -7
-6 -6 -7 -7 -7 -6 -6 -7 -8 -8 -7 -8 -8 -8 -7 -7 -6 -5 -5 -5 -5 -5 -6 -6 -6 -6 -6 -6 -6 -6 -6 -6 -6 -6 -6 -6 -7 -7 -7 -7 -7 -7 -6 -6 -7 -7 -7 -6 -6
-5 -6 -7 -8 -7 -6 -6 -7 -8 -7 -8 -8 -8 -9 -8 -6 -6 -5 -5 -5 -5 -6 -6 -6 -6 -6 -6 -6 -6 -6 -6 -6 -6 -6 -6 -6 -6 -6 -7 -7 -7 -7 -7 -7 -7 -7 -7 -7 -6
-5 -5 -6 -7 -8 -6 -7 -6 -7 -7 -8 -8 -8 -7 -7 -6 -6 -6 -5 -5 -5 -6 -6 -6 -6 -6 -6 -6 -6 -6 -6 -6 -6 -6 -6 -6 -6 -6 -6 -7 -7 -7 -7 -7 -7 -7 -7 -7 -7
-4 -6 -7 -7 -8 -8 -7 -5 -7 -7 -8 -7 -8 -7 -6 -6 -6 -5 -5 -5 -5 -5 -5 -6 -6 -6 -6 -6 -6 -6 -6 -6 -6 -6 -6 -6 -6 -6 -6 -7 -7 -6 -7 -7 -7 -7 -7 -7 -7
-5 -6 -7 -8 -8 -8 -7 -6 -6 -6 -7 -7 -8 -8 -6 -6 -6 -5 -5 -5 -5 -4 -5 -5 -5 -5 -6 -6 -6 -6 -6 -5 -6 -6 -6 -6 -6 -6 -6 -7 -7 -6 -7 -7 -7 -8 -8 -8 -8
-5 -6 -7 -7 -8 -6 -6 -5 -5 -5 -6 -7 -8 -8 -7 -7 -6 -5 -5 -4 -4 -5 -5 -5 -5 -5 -5 -5 -5 -6 -6 -6 -6 -6 -6 -6 -6 -6 -7 -7 -7 -6 -7 -7 -8 -8 -8 -8 -8
-3 -5 -6 -6 -5 -2 -6 -6 -3 -5 -6 -7 -8 -7 -7 -7 -6 -6 -5 -5 -5 -5 -5 -5 -5 -5 -5 -5 -5 -5 -6 -6 -6 -6 -6 -6 -6 -6 -6 -7 -7 -7 -7 -7 -8 -8 -8 -8 -8
-4 -4 -3 -3 -3 -4 -5 -2 -3 -5 -5 -7 -8 -8 -7 -6 -7 -6 -6 -6 -6 -5 -5 -5 -5 -5 -5 -5 -5 -5 -5 -5 -6 -6 -6 -7 -6 -6 -6 -7 -7 -7 -7 -7 -8 -9 -9 -9 -8
-4 -4 -5 -5 -4 -4 -3 -3 -4 -4 -5 -6 -7 -7 -7 -6 -6 -6 -7 -6 -5 -5 -6 -6 -6 -6 -5 -6 -5 -6 -6 -6 -6 -6 -7 -6 -7 -6 -7 -7 -7 -8 -8 -7 -8 -9 -9 -8 -8
-4 -5 -5 -5 -4 -4 -2 -2 -2 -4 -5 -6 -7 -7 -7 -6 -6 -7 -7 -6 -6 -6 -6 -6 -6 -6 -6 -6 -6 -6 -7 -7 -7 -7 -7 -7 -7 -7 -7 -7 -7 -8 -8 -8 -8 -9 -9 -9 -8
-4 -3 -3 -4 -4 -3 -2 -2 -3 -4 -5 -5 -6 -7 -7 -7 -7 -7 -7 -7 -7 -7 -6 -7 -6 -6 -6 -6 -7 -7 -7 -7 -7 -7 -7 -7 -7 -7 -7 -7 -8 -8 -8 -8 -8 -8 -9 -9 -9
-5 -5 -5 -5 -4 -3 -3 -2 -2 -3 -4 -5 -6 -6 -7 -7 -7 -7 -7 -7 -7 -7 -7 -7 -7 -6 -6 -7 -8 -8 -7 -8 -8 -8 -7 -7 -7 -6 -8 -8 -8 -8 -8 -9 -8 -9 -9 -9 -9
Height
5888 5889 5888 5887 5889 5888 5889 5890 5891 5892 5894 5894 5893 5894 5893 5893 5893 5897 5895 5896 5897 5898 5899 5900 5901 5901 5902 5903 5904 5903 5902 5903 5903 5903 5905 5904 5904 5904 5905 5906 5907 5908 5910 5910 5909 5910 5911 5910 5910
5888 5887 5888 5888 5890 5888 5890 5890 5890 5891 5893 5893 5893 5894 5895 5896 5895 5895 5896 5898 5899 5900 5901 5902 5903 5903 5904 5906 5906 5904 5904 5905 5905 5905 5905 5905 5905 5906 5906 5908 5908 5908 5908 5909 5910 5910 5910 5910 5910
5886 5886 5888 5888 5889 5889 5890 5890 5891 5891 5892 5893 5894 5895 5896 5896 5896 5896 5897 5898 5900 5901 5903 5903 5903 5904 5906 5907 5906 5905 5906 5906 5906 5905 5905 5905 5906 5907 5908 5909 5909 5908 5909 5910 5911 5911 5911 5911 5910
5887 5887 5888 5888 5889 5890 5890 5890 5891 5892 5892 5893 5894 5896 5897 5897 5897 5898 5899 5899 5901 5902 5904 5904 5904 5905 5907 5907 5906 5906 5906 5906 5906 5905 5906 5907 5908 5909 5909 5910 5911 5910 5912 5911 5912 5912 5912 5911 5911
5888 5888 5888 5888 5889 5890 5891 5891 5891 5892 5892 5892 5893 5895 5897 5898 5899 5899 5900 5902 5902 5903 5904 5905 5905 5906 5907 5907 5907 5907 5907 5907 5906 5907 5908 5909 5910 5910 5911 5912 5912 5913 5914 5913 5913 5913 5912 5912 5911
5890 5892 5891 5891 5891 5891 5892 5891 5892 5893 5893 5894 5894 5895 5897 5898 5899 5900 5902 5903 5903 5903 5905 5906 5906 5907 5907 5907 5907 5907 5908 5907 5908 5909 5910 5911 5913 5913 5914 5915 5915 5915 5915 5915 5914 5914 5913 5913 5912
5893 5893 5892 5891 5891 5891 5891 5892 5894 5893 5893 5894 5896 5896 5898 5898 5899 5901 5903 5904 5904 5904 5906 5906 5906 5907 5908 5908 5908 5908 5909 5909 5911 5911 5912 5913 5915 5915 5917 5918 5918 5918 5918 5918 5917 5917 5916 5916 5915
5894 5893 5892 5892 5891 5891 5890 5891 5893 5893 5894 5894 5895 5897 5899 5899 5900 5902 5904 5904 5905 5906 5907 5907 5908 5908 5909 5910 5911 5910 5911 5912 5913 5914 5915 5916 5917 5919 5920 5921 5921 5921 5921 5920 5920 5920 5920 5919 5918
5893 5894 5893 5893 5893 5892 5891 5892 5892 5892 5893 5895 5895 5896 5898 5900 5901 5902 5904 5905 5906 5907 5907 5908 5909 5910 5911 5912 5913 5913 5913 5914 5915 5917 5918 5919 5920 5922 5922 5923 5923 5924 5924 5923 5923 5923 5922 5921 5920
5892 5894 5894 5894 5893 5893 5893 5892 5891 5893 5893 5895 5895 5896 5897 5900 5902 5903 5905 5906 5907 5908 5908 5909 5911 5912 5913 5914 5914 5915 5916 5917 5918 5919 5920 5921 5922 5924 5924 5925 5926 5926 5926 5926 5925 5924 5923 5922 5921
5890 5893 5894 5894 5893 5893 5893 5892 5891 5892 5893 5894 5894 5895 5897 5899 5901 5903 5905 5907 5908 5908 5909 5910 5911 5913 5915 5916 5916 5917 5918 5920 5921 5922 5922 5924 5925 5926 5926 5927 5928 5928 5928 5928 5927 5926 5924 5923 5923
5890 5892 5893 5894 5893 5893 5893 5893 5892 5891 5892 5893 5893 5895 5895 5897 5899 5902 5905 5908 5909 5908 5910 5911 5912 5913 5916 5917 5918 5919 5921 5922 5923 5924 5925 5926 5927 5928 5928 5929 5930 5930 5929 5929 5929 5928 5926 5924 5923
5886 5890 5892 5893 5893 5893 5893 5894 5893 5890 5890 5892 5892 5892 5894 5895 5898 5903 5905 5907 5909 5909 5910 5912 5913 5914 5917 5918 5919 5921 5923 5923 5924 5926 5927 5928 5929 5929 5929 5929 5930 5930 5930 5930 5930 5930 5928 5927 5925
5881 5885 5889 5891 5892 5892 5893 5893 5894 5893 5890 5891 5891 5891 5893 5894 5895 5901 5903 5906 5908 5909 5911 5912 5914 5916 5918 5920 5921 5923 5924 5925 5926 5927 5928 5929 5930 5931 5931 5931 5930 5930 5931 5931 5930 5929 5928 5927 5926
5876 5880 5884 5889 5891 5891 5892 5894 5893 5893 5892 5890 5890 5890 5891 5893 5894 5897 5900 5903 5907 5908 5911 5913 5914 5916 5918 5921 5923 5925 5926 5926 5927 5928 5929 5930 5931 5931 5931 5931 5930 5931 5931 5929 5928 5928 5927 5926 5925
5872 5875 5881 5886 5888 5890 5890 5891 5891 5892 5891 5890 5889 5889 5890 5892 5894 5896 5898 5903 5906 5908 5910 5913 5915 5916 5919 5921 5923 5925 5926 5927 5928 5928 5929 5930 5930 5931 5931 5931 5931 5931 5930 5928 5927 5925 5925 5924 5923
5868 5873 5879 5881 5886 5889 5889 5889 5890 5890 5890 5890 5888 5888 5889 5891 5894 5896 5898 5902 5905 5906 5910 5913 5915 5916 5918 5920 5922 5924 5926 5927 5928 5929 5930 5930 5931 5932 5931 5931 5930 5930 5930 5928 5927 5926 5925 5922 5921
5865 5870 5874 5878 5883 5887 5886 5887 5887 5887 5887 5887 5887 5887 5889 5890 5894 5895 5898 5900 5903 5906 5909 5912 5914 5917 5918 5920 5922 5924 5925 5926 5928 5929 5930 5930 5932 5931 5931 5931 5931 5930 5929 5928 5927 5926 5924 5922 5920
5862 5865 5869 5873 5877 5880 5883 5884 5885 5885 5886 5885 5885 5886 5887 5889 5891 5894 5897 5899 5902 5906 5909 5913 5916 5917 5919 5920 5922 5924 5925 5927 5928 5929 5930 5931 5932 5931 5931 5931 5931 5929 5929 5928 5927 5926 5924 5922 5919
5856 5860 5864 5868 5871 5875 5878 5881 5881 5884 5886 5884 5882 5883 5885 5888 5890 5893 5896 5897 5901 5905 5908 5911 5914 5916 5917 5919 5922 5924 5925 5927 5928 5929 5930 5930 5930 5930 5931 5931 5930 5929 5929 5928 5926 5925 5922 5920 5917
5850 5856 5860 5864 5865 5868 5871 5874 5877 5881 5881 5882 5882 5882 5881 5884 5889 5893 5895 5897 5899 5903 5907 5910 5913 5915 5918 5919 5921 5923 5924 5925 5927 5928 5929 5929 5929 5929 5930 5931 5930 5929 5928 5928 5925 5924 5923 5921 5919
5845 5852 5854 5857 5858 5860 5864 5869 5870 5874 5877 5879 5880 5883 5882 5881 5888 5892 5894 5897 5899 5902 5904 5907 5911 5914 5917 5919 5920 5921 5923 5924 5926 5927 5927 5928 5928 5928 5929 5929 5929 5928 5927 5927 5926 5925 5924 5922 5921
5844 5844 5847 5851 5853 5854 5857 5860 5868 5868 5872 5877 5879 5882 5881 5881 5884 5889 5892 5895 5898 5901 5904 5906 5908 5911 5913 5917 5917 5919 5921 5923 5924 5925 5926 5926 5927 5928 5928 5928 5928 5927 5925 5926 5926 5925 5924 5923 5922
5834 5836 5839 5842 5846 5840 5852 5852 5859 5862 5871 5873 5876 5878 5879 5880 5883 5886 5890 5892 5896 5897 5901 5904 5907 5909 5911 5912 5914 5916 5917 5919 5922 5922 5923 5924 5926 5927 5927 5926 5926 5925 5924 5925 5925 5924 5923 5922 5922
5825 5826 5830 5834 5834 5833 5847 5844 5854 5859 5865 5870 5872 5876 5877 5878 5880 5883 5888 5892 5895 5898 5900 5902 5904 5906 5908 5911 5913 5914 5914 5916 5919 5921 5922 5923 5923 5924 5924 5924 5924 5923 5923 5924 5923 5924 5924 5923 5922
5819 5822 5825 5826 5830 5832 5837 5839 5847 5856 5859 5864 5868 5872 5875 5875 5877 5880 5884 5888 5892 5896 5898 5901 5903 5904 5906 5907 5910 5911 5913 5915 5917 5919 5921 5920 5919 5920 5921 5920 5921 5922 5922 5922 5922 5923 5923 5923 5921
5811 5814 5826 5822 5824 5827 5832 5838 5843 5850 5854 5859 5864 5866 5870 5874 5876 5880 5882 5885 5887 5891 5895 5897 5899 5900 5903 5904 5905 5907 5909 5911 5912 5914 5916 5917 5916 5917 5917 5917 5917 5918 5921 5921 5922 5922 5922 5922 5921
5801 5810 5810 5812 5817 5820 5826 5830 5838 5845 5851 5856 5859 5862 5868 5872 5875 5878 5880 5883 5886 5888 5890 5891 5893 5895 5897 5899 5901 5903 5904 5905 5907 5909 5911 5913 5912 5913 5913 5913 5914 5915 5917 5919 5920 5920 5920 5920 5920
5794 5796 5801 5806 5810 5816 5821 5826 5833 5839 5845 5849 5855 5860 5865 5870 5873 5876 5879 5881 5883 5885 5886 5888 5890 5892 5895 5896 5897 5899 5901 5901 5902 5904 5905 5906 5907 5908 5909 5909 5909 5911 5913 5915 5916 5918 5918 5917 5917
5786 5789 5793 5795 5807 5813 5816 5821 5827 5833 5839 5843 5849 5855 5859 5864 5869 5870 5874 5877 5879 5881 5883 5885 5887 5889 5891 5893 5893 5895 5897 5898 5899 5900 5901 5902 5903 5903 5904 5905 5906 5907 5908 5910 5912 5914 5915 5915 5914
Wind_Speed
4 3 2 5 13 16 14 17 14 13 13 12 14 11 9 10 8 13 16 15 15 9 10 9 8 7 7 6 7 9 11 12 13 13 14 14 14 14 13 13 11 12 11 10 11 9 9 9 9
4 5 5 5 11 13 10 11 13 13 13 13 13 10 8 7 9 13 11 11 9 9 9 8 6 6 6 5 7 10 12 13 14 16 16 16 15 13 13 14 13 13 11 11 10 8 8 8 7
6 8 11 10 11 11 11 13 14 15 15 15 12 7 9 7 9 10 9 14 10 8 7 5 5 5 6 6 8 11 12 14 16 17 17 16 14 14 14 15 15 14 13 12 10 9 7 5 3
8 5 8 12 12 11 11 14 13 13 14 11 8 7 6 5 7 9 12 13 11 7 5 5 5 6 6 7 10 11 13 15 17 18 17 15 15 16 16 16 15 13 14 13 10 9 9 6 5
13 12 17 17 15 11 11 10 10 8 10 13 12 7 7 6 4 9 12 10 9 7 5 6 6 7 7 8 10 11 14 15 16 18 17 15 14 15 16 16 14 13 14 15 13 12 10 10 8
17 13 17 15 12 10 10 7 8 9 12 11 9 11 10 7 6 8 9 7 5 5 5 7 7 7 8 10 11 14 16 16 16 18 16 14 15 17 18 18 16 18 17 16 15 13 13 13 12
19 16 14 13 9 10 10 7 8 8 9 9 7 9 11 9 7 8 7 4 4 4 4 7 8 9 11 12 14 16 18 17 17 17 16 16 20 20 20 20 21 21 20 21 21 19 18 16 15
12 10 12 9 9 10 12 13 12 7 9 10 10 6 5 11 11 8 5 3 3 6 6 7 8 11 13 14 15 17 17 19 18 17 17 19 20 21 23 22 23 22 21 21 20 19 16 14 14
14 11 9 5 4 6 9 12 11 8 9 10 8 12 10 10 12 10 6 4 4 7 8 8 9 12 14 15 16 17 18 18 19 19 20 20 19 20 20 20 20 19 18 17 16 14 14 13 12
14 12 11 8 5 7 8 11 14 11 10 9 8 8 11 10 10 9 6 4 4 6 9 9 10 12 15 17 18 18 19 21 21 20 20 19 17 16 17 16 17 17 16 15 13 12 11 11 10
14 18 11 11 7 4 9 12 16 14 11 7 7 11 12 13 9 8 5 2 4 6 9 11 11 12 14 16 19 19 19 22 20 18 16 16 14 14 14 14 14 15 13 13 12 10 9 9 10
17 19 14 11 9 8 8 10 15 17 15 11 8 9 15 15 12 11 9 5 1 8 9 12 14 14 15 17 17 19 20 20 16 17 16 15 13 13 13 13 13 12 12 10 9 8 6 5 6
20 20 19 15 13 11 7 7 11 16 16 13 11 8 11 16 13 11 10 8 5 11 11 14 14 16 16 17 18 17 19 19 18 19 16 14 13 13 12 12 11 10 9 8 6 6 6 5 4
26 22 21 24 12 13 10 7 7 9 13 13 11 9 5 14 17 15 13 13 10 13 12 17 15 18 17 18 18 18 18 18 16 15 15 14 13 11 10 9 9 6 5 5 4 5 5 5 4
28 23 19 22 21 14 11 12 9 6 7 10 10 9 4 10 14 17 15 14 16 17 14 18 17 18 18 18 17 16 16 16 14 14 14 13 11 9 8 7 7 6 7 7 7 7 8 7 6
29 26 19 20 16 16 18 19 14 10 7 8 9 8 6 8 12 13 14 15 17 17 15 19 18 20 18 18 18 16 14 14 13 12 11 10 8 5 5 5 5 7 10 11 10 9 7 7 6
28 21 21 26 20 18 18 20 17 14 9 8 8 7 7 8 11 13 15 17 19 18 15 20 18 20 19 17 16 15 13 13 11 10 9 7 6 3 2 4 7 10 11 12 12 11 9 8 7
18 22 23 28 24 22 18 20 22 19 17 14 10 8 7 7 10 12 18 20 19 19 18 20 18 17 17 15 14 13 12 11 10 9 8 6 4 3 2 5 8 10 12 13 13 13 11 11 10
17 24 27 30 33 28 20 23 24 21 19 15 13 10 8 9 10 13 17 19 19 20 18 18 16 15 13 15 15 14 13 11 10 9 9 7 4 1 3 6 9 10 13 13 13 14 16 17 15
23 23 28 33 33 31 31 26 27 19 17 15 17 15 9 12 12 15 18 18 18 20 20 19 18 17 15 13 12 13 13 12 11 10 8 4 1 4 6 8 10 10 11 12 11 18 21 21 17
25 22 28 32 35 30 27 30 31 23 23 19 12 18 19 16 15 16 19 22 21 20 18 19 19 17 15 14 11 11 12 13 12 10 8 5 2 4 7 9 12 11 10 12 12 18 19 21 19
24 20 27 33 35 36 30 32 36 31 28 23 13 16 20 19 16 16 18 20 21 21 22 19 16 15 13 12 13 12 11 11 11 11 9 6 4 3 4 7 11 11 11 12 11 15 16 17 16
19 26 26 31 36 38 34 32 37 36 31 21 16 22 19 20 20 19 20 20 20 19 17 18 19 17 15 14 15 13 11 12 12 13 13 10 7 6 5 8 11 11 10 10 10 12 12 13 12
25 32 33 35 38 42 31 33 36 37 25 22 21 24 22 20 20 20 23 24 22 21 20 18 16 17 17 18 17 16 17 15 14 15 15 12 11 9 8 8 10 12 11 9 8 10 13 12 10
29 36 38 39 40 31 31 40 17 32 30 23 25 24 27 24 24 22 16 14 13 14 16 17 17 15 14 14 14 16 17 18 18 18 18 17 16 15 10 9 10 11 11 9 7 10 12 13 12
30 33 34 35 30 39 34 14 10 28 32 28 29 26 28 30 28 25 24 22 18 15 14 11 11 13 14 15 16 17 17 18 19 20 21 21 20 18 13 12 11 12 11 10 6 8 11 13 9
34 32 27 38 37 36 27 16 11 18 31 32 29 30 31 28 26 26 25 23 22 20 15 12 14 16 15 16 20 21 21 21 20 22 23 22 22 20 17 15 13 12 11 11 7 7 10 12 12
39 33 37 38 38 35 25 20 11 14 20 27 31 30 32 27 27 25 24 22 19 16 17 16 17 15 17 15 16 18 18 21 23 22 22 23 24 22 19 18 16 14 13 11 9 8 10 13 13
43 42 40 39 39 34 26 17 12 13 19 27 35 32 32 30 28 28 26 23 22 19 21 18 18 18 15 14 15 15 14 15 17 20 24 25 27 25 21 20 20 17 15 12 10 9 10 12 15
45 44 43 45 36 31 31 28 18 13 19 26 34 36 34 32 36 33 32 30 27 25 25 23 22 20 15 19 18 16 17 14 12 13 17 22 27 28 26 24 23 20 19 14 12 10 12 13 15
Wind_Direction
118 32 5 24 80 96 116 115 102 113 120 120 119 117 124 127 131 130 142 130 139 136 123 116 107 88 92 91 92 92 89 90 93 97 103 103 95 90 90 92 96 95 96 98 102 93 89 83 70
66 322 190 110 111 113 113 132 116 129 136 128 131 133 136 133 134 138 133 130 143 127 123 120 120 116 101 97 105 99 94 97 102 102 103 99 96 94 91 92 91 89 93 94 104 111 94 89 88
318 17 168 135 120 117 124 133 133 133 133 141 142 140 134 136 148 146 136 135 132 133 135 137 119 102 99 115 106 96 98 105 106 104 97 97 96 89 84 91 98 98 95 99 107 110 104 97 88
35 46 139 152 154 143 145 139 141 146 147 152 154 150 144 156 170 150 139 128 126 142 134 125 109 107 112 118 102 102 105 111 110 100 96 94 90 86 82 81 88 100 101 101 104 103 102 93 74
79 154 150 151 142 152 144 143 140 147 153 155 153 161 160 147 156 152 139 139 136 137 128 111 108 113 125 115 104 110 112 115 107 99 93 88 80 77 85 91 96 96 96 99 99 94 84 75 67
104 115 119 119 136 154 130 112 152 155 156 158 158 158 159 148 157 152 145 145 148 146 130 122 119 126 118 106 108 118 119 117 104 99 96 92 85 85 88 94 96 94 96 95 90 82 76 73 65
121 107 119 144 154 151 131 113 144 143 144 157 160 164 162 152 143 158 160 158 161 129 134 125 134 121 109 111 119 121 123 115 107 104 103 97 95 95 95 94 91 90 92 87 86 83 77 69 63
144 142 122 142 159 146 130 137 141 140 155 157 152 164 181 171 154 152 133 117 122 124 132 135 134 119 117 119 123 125 120 113 112 110 107 104 102 98 94 91 90 89 87 86 87 85 80 77 71
140 144 138 139 182 182 152 139 127 113 146 158 149 165 164 179 165 146 126 104 129 137 142 140 134 123 120 123 128 125 119 119 117 118 114 111 103 99 95 94 88 85 82 76 72 72 74 70 64
147 162 174 183 165 172 165 151 129 117 136 163 154 153 165 174 179 147 115 79 108 151 149 149 140 129 127 125 124 125 123 123 121 119 118 113 109 103 100 96 91 89 88 84 75 64 65 69 60
173 166 167 183 207 174 168 163 145 117 111 138 153 165 170 175 178 180 170 102 111 156 158 153 145 139 138 141 126 126 129 128 125 124 123 120 118 112 106 101 96 94 88 83 81 76 59 57 65
180 170 170 180 193 196 171 166 155 126 114 113 133 176 173 178 181 190 194 204 176 167 161 158 149 142 139 135 137 139 136 134 137 138 124 121 124 115 106 97 92 89 84 78 75 69 71 43 36
213 204 185 180 184 183 145 135 148 138 124 118 107 104 184 181 190 197 202 213 215 178 169 161 155 147 142 141 141 141 144 142 133 137 130 126 120 114 109 104 98 86 82 76 67 70 58 55 29
221 221 205 186 169 170 160 148 156 156 136 111 94 78 134 186 189 198 211 214 206 180 177 165 160 151 147 148 149 149 144 148 144 138 132 128 124 120 116 107 92 78 51 30 21 15 35 40 35
216 223 215 192 185 170 169 170 150 173 152 114 91 75 89 170 178 201 201 192 187 175 176 170 167 161 157 159 159 161 155 143 139 134 133 127 123 124 108 92 73 39 14 358 8 9 4 1 360
214 221 212 195 178 184 180 169 160 158 151 128 105 86 102 155 174 171 172 177 183 173 176 174 172 171 168 168 171 173 165 149 144 137 132 127 122 118 101 69 40 11 6 13 9 3 357 342 341
225 217 197 200 193 204 182 171 171 182 165 156 114 98 116 148 163 168 166 178 178 170 172 175 174 172 178 180 179 179 170 163 150 145 146 146 146 159 104 32 14 14 10 7 6 359 360 353 339
232 218 202 199 202 194 183 191 183 183 182 169 142 118 126 152 174 179 174 176 177 171 174 174 173 169 172 178 184 184 176 169 165 164 165 163 169 160 33 21 11 8 360 3 14 20 22 14 352
213 215 205 207 209 210 194 200 200 196 191 175 150 135 143 163 176 182 183 178 174 175 174 180 177 175 173 169 172 182 185 177 172 169 167 178 189 164 19 3 2 355 357 1 18 23 25 29 9
219 211 207 214 225 221 209 205 211 199 179 175 166 159 152 170 178 180 180 178 174 178 181 180 183 186 182 179 181 176 184 187 179 177 172 179 211 20 11 3 348 348 355 357 13 15 19 25 21
206 203 207 212 224 230 220 206 206 200 197 186 182 183 170 165 177 186 181 176 171 172 177 182 182 188 189 183 189 196 195 193 184 187 189 195 226 22 12 354 340 336 348 349 15 19 18 20 30
213 205 214 211 222 228 226 203 201 202 201 190 202 209 176 160 174 181 183 184 178 178 177 175 176 183 194 200 205 206 200 196 190 200 206 212 235 293 341 330 331 327 342 346 9 23 21 18 30
203 212 211 217 224 235 230 220 202 204 204 196 208 217 183 170 176 181 175 175 180 180 181 180 182 186 188 199 210 213 217 209 204 212 219 225 242 264 289 311 324 322 332 337 356 15 17 6 16
204 210 216 216 222 234 229 236 198 207 197 197 207 208 184 178 180 181 182 179 183 183 190 190 191 197 197 203 211 211 220 227 223 230 233 235 247 256 267 293 315 317 318 328 346 360 352 9 12
215 211 214 220 228 247 229 238 212 203 199 202 205 217 191 182 184 185 180 179 188 196 200 203 202 202 208 218 225 229 227 230 233 234 237 239 246 253 259 273 298 306 306 307 334 347 0 357 1
232 228 232 235 245 240 237 243 206 198 203 189 196 211 219 192 183 172 170 170 172 181 183 199 213 216 210 214 220 228 237 241 240 243 243 243 247 252 258 261 280 296 292 291 314 341 345 351 349
231 231 235 236 242 247 258 247 247 208 203 208 206 209 213 205 191 178 180 186 188 190 190 194 212 216 220 228 233 233 231 235 235 238 243 246 251 255 255 258 265 279 278 295 289 311 333 339 334
223 225 230 233 238 244 246 244 219 192 196 202 200 216 211 208 194 184 188 186 191 190 196 207 208 205 210 222 230 236 237 237 238 240 247 248 252 255 254 252 256 267 267 278 271 298 317 326 332
225 226 229 234 234 241 247 233 216 207 199 197 203 211 210 216 195 196 197 195 203 211 212 210 212 212 225 233 227 230 230 236 240 239 242 248 252 255 250 252 252 258 259 263 262 286 301 312 321
228 228 231 238 242 248 254 255 247 204 199 205 201 201 211 212 203 205 205 207 213 212 216 215 223 223 231 240 240 240 239 239 248 257 255 255 256 256 248 247 252 255 253 249 247 277 288 300 311